SL-12 DEB, 44560

Orbit data source: Space-Track

SL-12 DEB, 44560 is space debris in HEO originally from a launch on Thu, 02 Sep 2010 UTC launched from the Tyuratam Missile And Space Complex (TTMTR). Debris objects in space refer to the collection of defunct objects orbiting the Earth. Examples of debris include non-operational satellites, rocket bodies, and fragments generated from explosions, collisions, or faulty payload assembly.

Loading next visibility...
Identifier
44560, 2010-041AF
Orbit
HEO
Country
Flag of CISCIS
Related business
Manufacturer
RKKE
Mission
Spacecraft
Bus & Motor
Unknown
Mass
Unknown
Launch date (UTC)
2010-09-02 (15 years ago)
Launch vehicle
Unknown
Launch site
Tyuratam Missile And Space Complex (TTMTR)
Object type
Payload
Rocket body
Debris
Shape & HBR
Unknown
Radar Cross Section
Medium (>0.1 m² and <1 m²)

Expand to show TLE details & history
Last TLE update: 5 days ago

TLE from 5 days ago
0 SL-12 DEB
1 44560U 10041AF  25238.07884203 -.00000422  00000-0 -20380-2 0  9992
2 44560  65.2679 146.1150 5450648 284.3140  23.4158  4.57224324 97189
Epoch: 2025-08-26T01:53Z
TLE epoch observation values (Epoch: 2025-08-26T01:53:31.951Z)
Latitude
0.00001°
Longitude
143.15847°
Altitude
3,131.143 km
Speed
7.606 km/s
True Right ascension
09h 44m 28s
True Declination
0° 00' 00"
Sunlit
Object was in daylight at epoch
Visualization orbit readout
Latitude
Unknown
Longitude
Unknown
Altitude
Unknown
Speed
Unknown
Apparent Right ascension
Unknown
Apparent Declination
Unknown
Sunlit
N/A
Visualization observer readout
Local Sidereal Time
16:46:24
Azimuth
Unknown
Elevation
Unknown
Doppler factor
Unknown
Orbital elements
Apogee altitude
17,311.759 km
Perigee altitude
597.213 km
Semi-major axis
15,332.623 km
Eccentricity
0.54506
Inclination
65.2679°
RAAN
146.115°
Arg. of periapsis
284.314°
True anomaly
75.80966°
Mean anomaly
23.4158°
Eccentric anomaly
45.80783°
Mean motion
1.14319 °/min
Orbital period
314.91 mins
BSTAR
-0.002038
Loading maneuver chart data...
Computing Atmospheric mass density...
Loading historical data...
Loading historical data...
Loading historical data...
Loading historical data...
Loading historical data...
Loading historical data...
Loading historical data...

Documentation

Showing up to 5 results
|